sat.trackr.live / text

‹ back to catalog

2024-205K

NORAD 61903 · 2024-205K

PAYLOAD ACTIVE UNKNOWN

§ Identity

Operator
Country
PRC
Launch date
2024-11-11
Launch site
JSC
Launch vehicle
Mass (kg)
RCS (m²)

External: N2YO · Heavens-Above · Gunter

§ Orbital elements

Epoch: 2026-05-25T04:06:32.735808Z

Period
94.12 min
Inclination
97.4108°
Eccentricity
0.0011400
Mean motion
15.30026368 rev/d
Perigee alt
467.9 km
Apogee alt
483.5 km
Semi-major
6,853.9 km
B*
4.9171e-4
RAAN
222.1876°
Arg perigee
118.4685°
Mean anomaly
241.7705°
Rev number
8,512

§ Raw data

2024-205K1 61903U 24205K   26145.17121222  .00014253  00000+0  49171-3 0  99972 61903  97.4108 222.1876 0011400 118.4685 241.7705 15.30026368 85123

JSON: /api/v1/satellites/61903 · /tle

For live sub-satellite position, see the globe view (requires WebGL).

§ Visibility from observer

Set your observer location to see the next 7 days of passes ≥ 10°. The values pass through the URL so the page stays shareable.

No JS? Fill the form by hand. The geolocation button needs JavaScript.